La Grande, OR

10:28 AM PST on December 08, 2019 (GMT -0800)
La Grande-Union County

Weather History for KLGD - November, 2019

Change the Weather History Date:

Thursday, November 14, 2019

  Actual Average Record
Temperature  
Mean Temperature 38 °F -  
Max Temperature 55 °F 46 °F 66 °F (1999)
Min Temperature 21 °F 31 °F 2 °F (1985)
Degree Days  
Heating Degree Days 27    
Moisture  
Dew Point 27 °F    
Average Humidity 77    
Maximum Humidity 96    
Minimum Humidity 45    
Precipitation  
Precipitation 0.00 in - - ()
Sea Level Pressure  
Sea Level Pressure 30.15 in    
Wind  
Wind Speed 4 mph ()    
Max Wind Speed 21 mph    
Max Gust Speed 28 mph    
Visibility 4.5 miles    
Events Fog    
Averages and records for this station are not official NWS values.
T = Trace of Precipitation, MM = Missing Value Source: Averaged Metar Reports

Daily Weather History Graph

Daily Weather History Graph

Search for Another Location

Airport or City:

Astronomy

Nov. 14, 2019 Rise Set
Actual Time 6:48 AM PST 4:23 PM PST
Civil Twilight 6:17 AM PST 4:55 PM PST
Nautical Twilight 5:41 AM PST 5:30 PM PST
Astronomical Twilight 5:06 AM PST 6:05 PM PST
Moon 6:08 PM PST (11/14) 8:52 AM PST (11/14)
Length of Visible Light 10h 38m
Length of Day
9h 34m
Waning Gibbous, 95% of the Moon is Illuminated
Nov 14
Waning Gibbous
Nov 19
Last Quarter
Nov 26
New
Dec 3
First Quarter
Dec 11
Full

Hourly Weather History & Observations

Time (PST) Temp. Windchill Dew Point Humidity Pressure Visibility Wind Dir Wind Speed Gust Speed Precip Events Conditions
12:19 AM 24.8 °F - 21.2 °F 86% 30.15 in 0.5 mi Calm Calm - N/A Fog Light Freezing Fog
12:33 AM 26.6 °F 22.6 °F 23.0 °F 86% 30.15 in 1.0 mi ESE 3.5 mph - 0.00 in   Clear
12:56 AM 26.1 °F - 24.1 °F 92% 30.19 in 0.8 mi Calm Calm - 0.00 in   Clear
1:06 AM 26.6 °F - 24.8 °F 93% 30.15 in 0.2 mi Calm Calm - N/A Fog Light Freezing Fog
1:14 AM 26.6 °F - 24.8 °F 93% 30.15 in 0.8 mi Calm Calm - N/A   Clear
1:16 AM 26.6 °F - 24.8 °F 93% 30.15 in 1.5 mi Calm Calm - N/A   Clear
1:24 AM 26.6 °F - 24.8 °F 93% 30.15 in 0.8 mi Calm Calm - N/A   Clear
1:28 AM 26.6 °F - 24.8 °F 93% 30.15 in 0.2 mi Calm Calm - N/A Fog Light Freezing Fog
1:39 AM 26.6 °F - 23.0 °F 86% 30.15 in 0.8 mi Calm Calm - N/A   Clear
1:56 AM 24.1 °F 19.7 °F 21.0 °F 88% 30.20 in 0.5 mi SW 3.5 mph - N/A Fog Light Freezing Fog
2:01 AM 23.0 °F 17.0 °F 21.2 °F 93% 30.16 in 0.8 mi South 4.6 mph - N/A   Mist
2:08 AM 21.2 °F - 19.4 °F 93% 30.16 in 0.5 mi Calm Calm - N/A Fog Light Freezing Fog
2:15 AM 23.0 °F - 21.2 °F 93% 30.16 in 0.2 mi Calm Calm - N/A Fog Light Freezing Fog
2:35 AM 23.0 °F - 21.2 °F 93% 30.16 in 0.5 mi Calm Calm - N/A Fog Light Freezing Fog
2:56 AM 24.1 °F 19.7 °F 21.9 °F 91% 30.20 in 0.2 mi WNW 3.5 mph - N/A Fog Light Freezing Fog
3:30 AM 24.8 °F - 21.2 °F 86% 30.15 in 0.5 mi Calm Calm - N/A Fog Light Freezing Fog
3:56 AM 24.1 °F - 21.0 °F 88% 30.20 in 0.5 mi Calm Calm - N/A Fog Light Freezing Fog
4:07 AM 24.8 °F - 21.2 °F 86% 30.16 in 0.2 mi Calm Calm - N/A Fog Light Freezing Fog
4:56 AM 26.1 °F - 24.1 °F 92% 30.23 in 0.2 mi Calm Calm - N/A Fog Light Freezing Fog
5:56 AM 27.0 °F - 25.0 °F 92% 30.22 in 0.2 mi Calm Calm - N/A Fog Light Freezing Fog
6:56 AM 28.0 °F - 26.1 °F 92% 30.24 in 0.2 mi Calm Calm - N/A Fog Light Freezing Fog
7:15 AM 28.4 °F 23.3 °F 26.6 °F 93% 30.17 in 1.0 mi NW 4.6 mph - N/A   Overcast
7:17 AM 28.4 °F 23.3 °F 26.6 °F 93% 30.17 in 4.0 mi NW 4.6 mph - N/A   Overcast
8:54 AM 28.4 °F 24.6 °F 26.6 °F 93% 30.19 in 6.0 mi NNE 3.5 mph - N/A   Scattered Clouds
8:56 AM 28.9 °F 25.2 °F 28.0 °F 96% 30.26 in 6.0 mi North 3.5 mph - N/A   Scattered Clouds
9:56 AM 35.1 °F 30.1 °F 33.1 °F 92% 30.24 in 10.0 mi NNE 5.8 mph - N/A   Clear
10:56 AM 48.9 °F - 36.0 °F 61% 30.19 in 10.0 mi ESE 9.2 mph - N/A   Clear
11:56 AM 53.1 °F - 35.1 °F 50% 30.15 in 10.0 mi South 18.4 mph 27.6 mph N/A   Partly Cloudy
12:56 PM 54.0 °F - 35.1 °F 49% 30.13 in 10.0 mi South 20.7 mph 26.5 mph N/A   Clear
1:56 PM 55.0 °F - 34.0 °F 45% 30.11 in 10.0 mi SSE 18.4 mph 25.3 mph N/A   Clear
2:56 PM 54.0 °F - 34.0 °F 47% 30.11 in 10.0 mi SSE 12.7 mph 21.9 mph N/A   Clear
3:56 PM 54.0 °F - 34.0 °F 47% 30.11 in 10.0 mi SSE 13.8 mph - N/A   Clear
4:56 PM 53.1 °F - 34.0 °F 48% 30.10 in 10.0 mi South 12.7 mph 19.6 mph N/A   Clear
5:56 PM 52.0 °F - 34.0 °F 50% 30.10 in 10.0 mi South 17.3 mph 23.0 mph N/A   Clear
6:56 PM 51.1 °F - 33.1 °F 50% 30.10 in 10.0 mi South 12.7 mph - N/A   Clear
7:56 PM 52.0 °F - 34.0 °F 50% 30.10 in 10.0 mi SSE 11.5 mph - N/A   Clear
8:56 PM 52.0 °F - 34.0 °F 50% 30.10 in 10.0 mi SSE 18.4 mph - N/A   Clear
9:56 PM 53.1 °F - 33.1 °F 47% 30.08 in 10.0 mi SSE 15.0 mph - N/A   Partly Cloudy
10:56 PM 52.0 °F - 33.1 °F 49% 30.05 in 10.0 mi SSE 16.1 mph - N/A   Partly Cloudy
11:56 PM 52.0 °F - 33.1 °F 49% 30.05 in 10.0 mi South 15.0 mph - 0.00 in   Partly Cloudy